Home

PKWA Terminal Aerodrome Forecast (TAF)small logo


TAF provided by NWS Guam
2014/07/22 18:27
TAF PKWA 221720Z 2218/2318 07005KT P6SM VCSH FEW018 SCT060

      



Site Map | Contact Us | Copyright © 2007 Atmospheric Technology Services Company. All rights reserved.